Location: LDNL
(36.4545°S, 141.6685°E)
Time: 14:11:04
(UTC+11:00)

Tiros 1 - All Passes

Search period start: 28 January 2022 00:00
Search period end: 07 February 2022 00:00
Orbit: 629 x 664 km, 48.4° (Epoch: 27 January)

Date Brightness Start Highest point End Pass type
(mag) Time Alt. Az. Time Alt. Az. Time Alt. Az.
28 Jan - 09:58:26 10° NNW 10:02:44 38° NE 10:07:03 10° ESE daylight
28 Jan - 11:40:27 10° W 11:44:53 42° SSW 11:49:21 10° SE daylight
28 Jan - 13:24:33 10° SW 13:27:59 20° S 13:31:26 10° SE daylight
28 Jan - 15:07:44 10° SW 15:11:26 22° SSE 15:15:09 10° ESE daylight
28 Jan - 16:49:38 10° SW 16:54:19 62° SSE 16:59:01 10° ENE daylight
28 Jan - 18:32:26 10° W 18:36:13 24° NW 18:40:00 10° N daylight
29 Jan - 08:44:21 10° NNE 08:46:51 14° NE 08:49:21 10° E daylight
29 Jan - 10:23:49 10° NW 10:28:29 89° NE 10:33:10 10° SE daylight
29 Jan - 12:07:10 10° WSW 12:11:06 26° SSW 12:15:05 10° SE daylight
29 Jan - 13:51:11 10° SW 13:54:30 19° S 13:57:49 10° SE daylight
29 Jan - 15:33:32 10° SW 15:37:46 32° SSE 15:42:01 10° E daylight
29 Jan - 17:15:32 10° WSW 17:20:12 62° NW 17:24:52 10° NE daylight
30 Jan - 09:08:09 10° NNW 09:12:22 35° NE 09:16:35 10° ESE daylight
30 Jan - 10:49:59 10° WNW 10:54:28 45° SSW 10:58:58 10° SE daylight
30 Jan - 12:34:03 10° WSW 12:37:32 20° S 12:41:00 10° SE daylight
30 Jan - 14:17:20 10° SW 14:20:58 22° SSE 14:24:38 10° ESE daylight
30 Jan - 15:59:16 10° SW 16:03:54 57° SSE 16:08:33 10° ENE daylight
30 Jan - 17:41:56 10° WSW 17:45:51 26° NW 17:49:47 10° N daylight
31 Jan - 07:54:25 10° NNE 07:56:30 13° NE 07:58:36 10° ENE daylight
31 Jan - 09:33:26 10° NW 09:38:05 82° NE 09:42:46 10° SE daylight
31 Jan - 11:16:40 10° WSW 11:20:40 27° SSW 11:24:42 10° SE daylight
31 Jan - 13:00:44 10° SW 13:04:02 19° S 13:07:20 10° SE daylight
31 Jan - 14:43:10 10° SW 14:47:20 30° SSE 14:51:30 10° E daylight
31 Jan - 16:25:08 10° WSW 16:29:49 68° NW 16:34:29 10° NE daylight
31 Jan - 18:10:38 10° WNW 18:11:18 10° NW 18:12:00 10° NW daylight
01 Feb - 08:17:53 10° NNW 08:22:00 32° NE 08:26:07 10° ESE daylight
01 Feb - 09:59:31 10° WNW 10:04:03 49° SSW 10:08:35 10° SE daylight
01 Feb - 11:43:33 10° WSW 11:47:04 20° S 11:50:35 10° SE daylight
01 Feb - 13:26:57 10° SW 13:30:31 21° S 13:34:06 10° ESE daylight
01 Feb - 15:08:53 10° SW 15:13:30 53° SSE 15:18:06 10° ENE daylight
01 Feb - 16:51:27 10° WSW 16:55:29 29° NW 16:59:32 10° NNE daylight
02 Feb - 07:04:36 10° NNE 07:06:09 11° NE 07:07:43 10° ENE daylight
02 Feb - 08:43:03 10° NW 08:47:42 75° NE 08:52:22 10° ESE daylight
02 Feb - 10:26:09 10° W 10:30:13 29° SSW 10:34:19 10° SE daylight
02 Feb - 12:10:16 10° SW 12:13:34 18° S 12:16:51 10° SE daylight
02 Feb - 13:52:47 10° SW 13:56:53 29° SSE 14:00:59 10° E daylight
02 Feb - 15:34:44 10° WSW 15:39:25 75° NW 15:44:06 10° NE daylight
02 Feb - 17:19:22 10° WNW 17:20:58 12° NW 17:22:34 10° NNW daylight
03 Feb - 07:27:37 10° NNW 07:31:38 29° NE 07:35:39 10° ESE daylight
03 Feb - 09:09:04 10° WNW 09:13:38 52° SSW 09:18:13 10° SE daylight
03 Feb - 10:53:03 10° WSW 10:56:36 21° S 11:00:10 10° SE daylight
03 Feb - 12:36:32 10° SW 12:40:03 20° S 12:43:34 10° ESE daylight
03 Feb - 14:18:31 10° SW 14:23:04 49° SSE 14:27:37 10° ENE daylight
03 Feb - 16:00:58 10° WSW 16:05:07 32° NW 16:09:16 10° NNE daylight
04 Feb - 06:15:15 10° NE 06:15:48 10° NE 06:16:23 10° ENE visible
04 Feb - 07:52:40 10° NW 07:57:18 68° NE 08:01:58 10° ESE daylight
04 Feb - 09:35:39 10° W 09:39:47 30° SSW 09:43:56 10° SE daylight
04 Feb - 11:19:48 10° SW 11:23:05 18° S 11:26:23 10° SE daylight
04 Feb - 13:02:25 10° SW 13:06:26 28° SSE 13:10:28 10° E daylight
04 Feb - 14:44:20 10° SW 14:49:01 82° NW 14:53:42 10° NE daylight
04 Feb - 16:28:29 10° WNW 16:30:37 13° NW 16:32:44 10° NNW daylight
05 Feb - 06:37:22 10° N 06:41:16 26° NE 06:45:10 10° ESE daylight
05 Feb - 08:18:36 10° WNW 08:23:13 57° SSW 08:27:49 10° SE daylight
05 Feb - 10:02:31 10° WSW 10:06:08 22° SSW 10:09:45 10° SE daylight
05 Feb - 11:46:07 10° SW 11:49:35 20° S 11:53:03 10° ESE daylight
05 Feb - 13:28:08 10° SW 13:32:39 46° SSE 13:37:09 10° ENE daylight
05 Feb - 15:10:30 10° WSW 15:14:45 35° NW 15:18:59 10° NNE daylight
06 Feb - 07:02:17 10° NW 07:06:55 62° NE 07:11:33 10° ESE daylight
06 Feb - 08:45:08 10° W 08:49:21 32° SSW 08:53:33 10° SE daylight
06 Feb - 10:29:19 10° SW 10:32:37 19° S 10:35:55 10° SE daylight
06 Feb - 12:12:02 10° SW 12:16:00 26° SSE 12:19:57 10° ESE daylight
06 Feb - 13:53:56 10° SW 13:58:37 88° NW 14:03:19 10° NE daylight
06 Feb - 15:37:45 10° W 15:40:16 14° NW 15:42:46 10° NNW daylight
